Location: Newark
(49.8969°N, 3.3422°E)
Time: 08:03:39
(UTC+00:00)

Envisat - Pass Details

Date: 11 December 2019
Orbit: 764 x 766 km, 98.1° (Epoch: 28 January)

Event Time Altitude Azimuth Distance (km) Brightness Sun altitude
Rises 17:00:09 0° 148° (SSE) 3,223 6.1 -11.4°
Reaches altitude 10° 17:02:29 10° 144° (SE) 2,301 5.3 -11.7°
Maximum altitude 17:07:24 52° 69° (ENE) 955 3.1 -12.4°
Drops below altitude 10° 17:12:20 10° 354° (N) 2,317 5.3 -13.2°
Sets 17:14:42 0° 350° (N) 3,248 6.1 -13.5°
